Location: Aalen
(48.8330°N, 10.1000°E)
Time: 17:10:32
(UTC+01:00)

SEEDS - Visible Passes

Search period start: 20 March 2023 00:00
Search period end: 30 March 2023 01:00
Orbit: 573 x 589 km, 97.6° (Epoch: 19 March)

Date Brightness Start Highest point End Pass type
(mag) Time Alt. Az. Time Alt. Az. Time Alt. Az.
20 Mar ? 04:24:48 10° NNE 04:28:59 80° ESE 04:31:35 22° S visible
21 Mar ? 04:30:05 10° NNE 04:34:16 90° ESE 04:37:07 20° SSW visible
22 Mar ? 03:02:16 10° ENE 03:03:38 11° E 03:05:00 10° ESE visible
22 Mar ? 04:35:22 10° NNE 04:39:32 81° WNW 04:42:36 18° SSW visible
23 Mar ? 03:07:01 10° ENE 03:08:57 13° E 03:10:53 10° ESE visible
23 Mar ? 04:40:38 10° N 04:44:47 71° WNW 04:48:05 16° SSW visible
24 Mar ? 03:11:54 10° NE 03:14:15 15° E 03:16:35 10° ESE visible
24 Mar ? 04:45:53 10° N 04:50:00 63° WNW 04:53:33 14° SSW visible
25 Mar ? 03:16:51 10° NE 03:19:32 16° E 03:22:12 10° SE visible
25 Mar ? 04:51:07 10° N 04:55:13 55° WNW 04:58:59 12° SSW visible
26 Mar ? 04:21:50 10° NE 04:24:47 18° E 04:27:42 10° SE visible
26 Mar ? 05:56:22 10° N 06:00:24 49° WNW 06:04:25 10° SW visible
27 Mar ? 04:26:51 10° NE 04:30:01 21° E 04:33:10 10° SE visible
27 Mar ? 06:01:36 10° N 06:05:34 43° WNW 06:09:31 10° SW visible
28 Mar ? 04:31:52 10° NE 04:35:14 23° E 04:38:34 10° SSE visible
28 Mar ? 06:06:49 10° N 06:10:42 38° WNW 06:14:35 10° SW visible
29 Mar ? 04:36:55 10° NE 04:40:26 26° E 04:43:56 10° SSE visible
29 Mar ? 06:12:02 10° N 06:15:50 34° WNW 06:19:37 10° SW visible
